If you wish to contribute or participate in the discussions about articles you are invited to join SKYbrary as a registered user

Dodge County

From SKYbrary Wiki
KUNU
Airport
ICAO: KUNU
Summary
Name Dodge County
Region North America
Territory United States US.gif
Location Juneau, Wisconsin
Serving
Coordinates 43° 25' 35.5263", -88° 42' 0.7512"
AIP KUNU
Runways
Designator Length Width Surface
2/20 1227 m4,025.591 ft 23 m75.459 ft ASP
8/26 1542 m5,059.055 ft 30 m98.425 ft ASP
METAR
Observation KUNU 041155Z AUTO 02006KT 1/2SM FG OVC002 17/17 A3002 RMK AO2 70008 T01730172 10192 20168
Station Juneau, Dodge County Airport
Date/Time 04 September 2015 11:55:00
Wind direction 20°
Wind speed 06 kts
Lowest cloud amount overcast
Temperature 17.3°C
Dew point 17.2°C
Humidity 99%
QNH hPa
Weather condition fog

Dodge County Airport

ICAO: KUNU IATA: UNU

Description

Dodge County Airport is a public airport located north of Juneau, Wisconsin.

Climatology

Humid continental climate (Köppen climate classification Dfa) - characterized by four seasons: cold, windy, snowy winters, mild springs, hot, humid summers, and crisp and relatively short autumns. Precipitation reaches its lowest in January and February and peaks in summer and latter half of spring.

Maps

Terrain

Loading map...

Airport Layout

Loading map...


Accidents & Serious Incidents at or in vicinity of KUNU

None on SKYbrary